Date,TemperatureHighF,TemperatureAvgF,TemperatureLowF,DewpointHighF,DewpointAvgF,DewpointLowF,HumidityHigh,HumidityAvg,HumidityLow,PressureMaxIn,PressureMinIn,WindSpeedMaxMPH,WindSpeedAvgMPH,GustSpeedMaxMPH,PrecipitationSumIn
2013-1-1,32,26,13,30,23,10,96,88,81,30.16,30.03,13,3,14,0.00
2013-1-2,22,13,6,17,10,4,94,88,75,30.30,30.13,7,1,8,0.00
2013-1-3,30,19,7,23,15,5,94,85,67,30.28,30.19,18,4,19,0.00
2013-1-4,29,26,24,23,20,18,85,76,65,30.29,30.19,25,8,26,0.00
2013-1-5,34,27,20,28,22,17,89,81,73,30.40,30.16,13,4,16,0.01
2013-1-6,36,33,28,32,29,26,92,84,78,30.29,30.00,16,5,18,0.00
2013-1-7,34,30,26,28,25,22,92,85,70,30.49,30.27,13,4,13,0.01
2013-1-8,40,30,21,30,25,19,95,83,64,30.37,30.27,10,2,11,0.01
2013-1-9,45,38,32,38,32,27,91,78,60,30.51,30.21,17,5,19,0.05
2013-1-10,40,34,26,31,29,25,96,80,63,30.63,30.25,11,2,13,0.00
2013-1-11,57,47,40,53,43,29,98,86,63,30.26,29.89,18,4,19,0.51
2013-1-12,59,54,46,57,52,45,100,94,85,30.04,29.86,13,3,16,0.04
2013-1-13,64,56,38,59,54,37,98,91,81,30.01,29.75,20,5,22,0.30
2013-1-14,38,29,24,37,25,21,97,85,75,30.46,30.00,14,3,18,0.01
2013-1-15,33,28,23,24,22,20,91,79,68,30.44,30.14,9,2,10,0.00
2013-1-16,34,31,28,27,25,22,90,79,67,30.14,29.94,12,4,14,0.00
2013-1-17,35,32,25,30,26,16,88,79,68,30.29,30.04,15,4,18,0.00
2013-1-18,33,26,17,22,17,11,84,69,55,30.53,30.20,22,6,23,0.00
2013-1-19,49,42,32,30,26,22,68,54,43,30.20,29.76,26,8,26,0.00
2013-1-20,45,29,20,34,18,11,74,64,45,30.19,29.73,30,9,36,0.00
2013-1-21,21,17,9,16,10,2,88,74,61,30.18,30.00,21,7,21,0.00
2013-1-22,12,7,2,6,1,-2,86,77,65,30.37,30.16,15,6,17,0.00
2013-1-23,16,9,1,11,4,-3,91,80,59,30.38,30.16,10,2,12,0.00
2013-1-24,22,14,9,14,8,3,93,78,50,30.63,30.15,13,2,13,0.00
2013-1-25,18,15,10,16,11,6,92,82,69,30.58,30.09,13,2,13,0.00
2013-1-26,26,21,13,22,17,10,94,85,69,30.50,30.14,9,1,11,0.00
2013-1-27,30,22,11,25,17,9,94,79,66,30.58,30.30,11,2,16,0.00
2013-1-28,47,40,30,47,39,25,99,97,81,30.31,29.99,13,4,17,0.04
2013-1-29,59,52,45,56,51,45,100,95,82,30.07,29.66,15,3,18,0.11
2013-1-30,62,55,34,56,51,32,98,87,74,29.66,29.16,31,8,32,0.41
2013-1-31,34,24,16,32,19,8,96,80,68,29.92,29.32,28,12,29,0.01
2013-2-1,16,14,10,11,8,6,86,77,68,30.38,29.91,21,8,21,0.00
2013-2-2,22,17,10,21,14,6,95,88,76,30.37,30.03,15,4,16,0.00
2013-2-3,21,18,15,20,15,11,95,87,73,30.10,29.93,15,4,17,0.01
2013-2-4,24,20,14,22,17,10,94,90,84,30.11,29.92,10,2,10,0.00
2013-2-5,29,25,22,25,22,19,96,89,72,30.00,29.90,9,2,10,0.04
2013-2-6,32,26,19,26,19,13,95,76,53,30.36,30.00,10,2,12,0.00
2013-2-7,44,33,21,31,24,15,80,71,56,30.33,29.90,14,3,14,0.01
2013-2-8,40,31,24,37,28,21,96,88,76,30.29,29.77,19,6,22,0.14
2013-2-9,32,26,23,22,20,18,88,79,60,30.47,30.29,13,2,13,0.00
2013-2-10,46,35,23,37,24,18,83,65,47,30.37,29.86,15,4,19,0.00
2013-2-11,50,41,32,45,35,24,98,80,65,29.96,29.70,32,11,34,0.00
2013-2-12,39,32,26,29,25,23,92,77,64,30.11,29.95,19,5,26,0.00
2013-2-13,33,28,24,28,25,22,95,88,77,29.97,29.77,9,2,12,0.00
2013-2-14,38,32,23,35,30,21,96,92,77,29.95,29.85,21,5,23,0.00
2013-2-15,36,31,23,30,26,21,93,81,70,30.13,29.94,15,4,17,0.00
2013-2-16,28,23,17,23,18,11,92,79,52,30.12,30.00,13,3,15,0.01
2013-2-17,22,17,11,16,11,7,92,80,59,30.31,30.04,15,3,15,0.02
2013-2-18,45,28,10,33,19,6,90,71,56,30.32,29.81,17,5,20,0.00
2013-2-19,46,33,17,39,29,12,97,86,60,30.02,29.63,28,10,29,0.10
2013-2-20,20,18,15,17,14,10,91,83,74,30.29,30.01,19,8,20,0.00
2013-2-21,23,20,18,17,15,14,91,81,71,30.42,30.27,10,3,12,0.00
2013-2-22,38,30,20,37,27,15,97,88,77,30.34,29.98,17,5,22,0.01
2013-2-23,36,33,29,32,29,25,93,84,71,30.02,29.91,12,3,13,0.00
2013-2-24,33,29,26,26,24,20,86,80,71,30.19,29.92,13,4,14,0.00
2013-2-25,43,32,22,29,25,20,97,75,50,30.26,30.08,9,1,11,0.00
2013-2-26,38,34,30,37,30,23,95,84,68,30.11,29.53,24,7,26,0.91
2013-2-27,41,37,32,39,36,31,98,95,86,29.67,29.51,18,4,18,0.21
2013-2-28,34,32,30,32,30,28,97,93,89,29.92,29.61,13,4,18,0.03
2013-3-1,30,28,25,28,25,22,94,89,84,30.07,29.91,15,4,15,0.00
2013-3-2,27,25,24,24,22,20,93,88,79,30.05,30.01,14,3,14,0.00
2013-3-3,27,24,22,21,20,18,92,83,77,30.08,30.02,12,4,13,0.02
2013-3-4,32,27,25,23,22,21,83,79,68,30.14,30.13,4,1,5,0.04
2013-3-5,42,32,21,25,20,17,86,64,40,30.16,29.68,15,4,17,0.00
2013-3-6,43,36,29,33,30,25,95,79,62,30.20,29.68,18,4,23,0.03
2013-3-7,38,33,29,32,30,26,96,90,79,30.39,30.19,11,2,14,0.00
2013-3-8,39,30,24,32,26,22,96,87,72,30.51,30.38,12,2,13,0.01
2013-3-9,53,39,23,35,29,22,97,71,47,30.48,30.14,13,3,14,0.00
2013-3-10,68,56,45,40,35,30,70,47,33,30.14,29.88,13,5,19,0.01
2013-3-11,61,52,42,49,42,35,95,72,38,29.89,29.57,25,5,25,0.73
2013-3-12,42,36,33,37,31,27,91,83,72,30.01,29.75,15,7,17,0.00
2013-3-13,33,29,26,30,25,19,95,84,66,30.22,29.94,21,7,25,0.00
2013-3-14,38,29,23,24,21,18,83,73,55,30.30,30.16,17,5,18,0.00
2013-3-15,44,36,28,37,30,22,96,79,69,30.16,29.87,14,4,16,0.07
2013-3-16,38,33,29,37,32,26,98,95,88,30.05,29.68,10,3,10,0.08
2013-3-17,35,30,27,27,24,20,92,78,60,30.24,30.05,10,3,11,0.00
2013-3-18,46,36,27,46,33,20,99,90,75,30.19,29.64,21,6,22,0.40
2013-3-19,41,31,26,38,24,18,91,75,63,30.00,29.73,26,11,31,0.01
2013-3-20,30,27,20,23,20,13,91,75,61,30.01,29.92,16,6,19,0.00
2013-3-21,29,22,13,24,16,9,88,80,71,29.98,29.92,19,6,19,0.00
2013-3-22,37,29,24,24,21,19,84,74,57,30.06,29.97,14,5,15,0.00
2013-3-23,42,32,23,29,24,20,90,74,53,30.11,30.03,10,2,14,0.00
2013-3-24,35,31,26,25,23,22,89,74,60,30.05,29.52,16,4,24,0.00
2013-3-25,36,33,31,34,31,25,97,94,69,29.86,29.44,13,4,15,0.25
2013-3-26,40,34,31,34,31,29,96,89,72,30.14,29.86,11,3,14,0.01
2013-3-27,42,36,30,32,30,28,97,80,59,30.21,30.12,16,6,19,0.02
2013-3-28,44,38,32,32,28,26,80,69,50,30.29,30.20,15,4,16,0.00
2013-3-29,50,41,32,32,28,24,84,62,40,30.30,30.22,13,3,16,0.00
2013-3-30,55,41,28,32,26,22,83,58,31,30.28,30.06,16,2,16,0.00
2013-3-31,51,47,41,46,40,25,92,77,53,29.83,29.70,15,5,17,0.02
2013-4-1,47,37,30,41,24,15,80,59,39,30.10,29.69,22,5,22,0.00
2013-4-2,40,31,22,21,17,12,75,57,35,30.25,30.10,16,5,22,0.00
2013-4-3,38,31,22,22,18,12,83,59,39,30.47,30.25,18,3,18,0.00
2013-4-4,52,36,22,21,16,12,72,47,24,30.44,30.00,12,2,13,0.00
2013-4-5,48,40,31,34,25,16,71,56,40,30.23,29.96,15,3,19,0.00
2013-4-6,56,41,27,23,17,12,67,40,22,30.30,29.96,16,4,18,0.00
2013-4-7,72,58,46,45,36,17,73,45,25,30.00,29.82,22,7,24,0.00
2013-4-8,70,56,40,55,45,36,85,68,47,30.03,29.84,26,6,26,0.00
2013-4-9,80,65,46,58,52,42,86,64,44,30.09,29.86,21,5,22,0.00
2013-4-10,74,61,46,66,55,45,98,82,59,29.92,29.77,13,3,22,1.02
2013-4-11,54,50,42,54,49,42,100,97,93,29.90,29.57,17,3,22,0.30
2013-4-12,58,45,38,57,44,36,100,93,81,29.87,29.46,19,6,22,0.27
2013-4-13,43,40,33,37,34,29,87,81,70,30.06,29.87,17,6,20,0.00
2013-4-14,59,44,30,41,35,28,94,73,47,30.19,29.99,11,2,12,0.00
2013-4-15,67,59,51,53,47,38,77,64,57,30.06,29.95,25,5,25,0.00
2013-4-16,72,59,49,62,54,48,98,84,69,30.19,29.96,14,4,18,0.35
2013-4-17,65,56,47,55,47,42,99,76,49,30.28,30.06,12,3,14,0.00
2013-4-18,83,69,58,65,58,53,92,70,37,30.07,29.65,26,6,32,0.00
2013-4-19,70,52,39,60,44,30,94,75,58,29.86,29.36,25,9,26,0.26
2013-4-20,43,37,32,32,28,24,87,70,50,30.44,29.86,23,7,23,0.02
2013-4-21,50,39,28,32,27,24,86,64,37,30.64,30.44,11,2,14,0.00
2013-4-22,64,50,35,42,33,26,75,54,38,30.49,30.22,12,3,14,0.00
2013-4-23,70,57,43,46,38,27,65,49,35,30.23,29.89,19,4,19,0.00
2013-4-24,62,48,35,54,44,33,96,87,52,30.18,29.72,17,4,22,0.67
2013-4-25,52,40,31,42,35,30,96,81,52,30.39,30.18,22,4,22,0.05
2013-4-26,57,45,31,38,32,26,96,65,35,30.52,30.38,9,1,10,0.00
2013-4-27,70,55,41,42,35,31,73,49,26,30.41,30.10,11,2,16,0.00
2013-4-28,56,54,50,56,48,34,97,82,46,30.11,29.88,12,3,16,0.42
2013-4-29,66,59,55,58,55,53,99,87,67,29.99,29.88,10,3,12,0.15
2013-4-30,75,63,50,59,54,49,99,76,48,30.11,29.99,13,3,14,0.00
2013-5-1,78,66,55,60,54,50,85,65,42,30.26,30.11,14,4,15,0.00
2013-5-2,76,67,56,52,44,37,59,45,33,30.30,30.14,15,4,17,0.00
2013-5-3,75,66,56,45,40,31,57,40,25,30.18,30.06,18,5,23,0.00
2013-5-4,71,62,52,45,40,32,61,45,26,30.14,30.04,20,5,22,0.00
2013-5-5,73,63,53,43,37,26,64,41,19,30.09,29.98,19,4,23,0.00
2013-5-6,73,63,52,53,45,28,72,52,29,30.04,29.95,15,3,15,0.00
2013-5-7,72,63,57,59,54,51,88,75,52,30.01,29.94,13,3,15,0.02
2013-5-8,72,62,58,61,55,51,92,78,51,29.99,29.92,11,2,11,0.17
2013-5-9,79,66,53,59,50,40,98,64,28,29.99,29.92,9,1,10,0.01
2013-5-10,73,63,58,65,59,45,98,86,47,29.95,29.75,23,4,25,0.35
2013-5-11,60,49,45,60,48,43,98,94,84,29.90,29.75,11,2,14,0.21
2013-5-12,49,43,35,43,33,28,94,69,49,30.11,29.90,15,4,19,0.00
2013-5-13,51,41,30,34,29,21,91,64,36,30.19,30.09,17,2,17,0.00
2013-5-14,66,51,36,47,37,28,77,59,44,30.19,29.83,18,4,20,0.00
2013-5-15,84,69,54,62,53,43,85,60,33,29.85,29.72,15,3,20,0.00
2013-5-16,80,68,54,54,49,42,81,53,27,29.95,29.76,8,1,10,0.00
2013-5-17,81,65,52,65,51,42,90,64,39,30.11,29.95,9,2,10,0.00
2013-5-18,83,69,56,61,52,42,71,56,33,30.12,29.99,10,2,11,0.00
2013-5-19,80,71,62,67,63,56,93,75,59,30.04,29.91,11,3,13,0.00
2013-5-20,80,72,64,72,67,62,97,86,73,29.99,29.86,18,3,18,0.00
2013-5-21,84,75,68,70,66,61,97,76,50,29.89,29.76,19,4,22,0.00
2013-5-22,81,73,64,66,63,60,95,71,52,29.81,29.68,20,4,27,0.15
2013-5-23,74,61,42,64,57,40,98,87,63,30.03,29.72,16,4,18,0.02
2013-5-24,47,42,34,40,36,32,95,81,65,30.34,30.03,17,4,18,0.00
2013-5-25,60,46,31,41,36,30,99,70,37,30.41,30.30,16,2,17,0.00
2013-5-26,65,51,34,43,36,31,95,61,30,30.35,30.25,12,2,14,0.00
2013-5-27,59,51,40,50,43,35,87,74,60,30.28,30.07,10,2,10,0.06
2013-5-28,83,67,54,70,60,51,96,80,56,30.07,29.91,18,3,24,0.21
2013-5-29,87,77,69,67,62,58,75,61,44,30.03,29.93,16,3,21,0.00
2013-5-30,86,76,62,69,63,58,95,67,40,30.13,30.01,16,2,16,0.00
2013-5-31,84,73,65,72,65,61,98,78,54,30.05,29.91,17,3,21,0.63
2013-6-1,81,73,65,71,67,64,97,82,64,29.95,29.74,22,5,25,0.14
2013-6-2,76,68,62,67,62,56,99,81,61,29.90,29.73,12,3,18,0.37
2013-6-3,64,57,45,56,48,37,89,72,44,30.10,29.89,10,3,14,0.00
2013-6-4,70,56,41,51,44,40,98,68,42,30.19,30.10,10,2,10,0.00
2013-6-5,79,67,50,56,50,42,78,57,35,30.17,29.92,10,2,11,0.00
2013-6-6,62,59,54,61,57,49,99,94,64,29.92,29.78,8,2,10,1.63
2013-6-7,61,57,54,58,55,54,100,96,88,29.89,29.82,10,2,10,0.00
2013-6-8,73,64,56,58,56,54,99,76,52,30.09,29.92,7,1,10,0.00
2013-6-9,80,69,59,65,60,54,87,74,54,30.14,29.95,12,2,15,0.00
2013-6-10,72,68,64,70,66,62,98,92,78,29.96,29.73,10,2,13,0.62
2013-6-11,79,70,63,68,65,62,98,85,63,29.89,29.76,10,2,12,0.05
2013-6-12,81,73,63,74,67,62,97,83,68,29.90,29.65,12,1,13,0.02
2013-6-13,72,66,60,67,61,53,98,84,60,29.85,29.47,17,4,20,0.54
2013-6-14,72,62,53,61,56,51,95,83,64,30.07,29.85,13,3,13,0.00
2013-6-15,79,64,49,64,55,49,99,77,44,30.14,29.98,9,1,11,0.01
2013-6-16,79,70,63,71,67,61,98,90,72,29.91,29.85,8,2,9,0.37
2013-6-17,82,68,60,70,64,58,100,87,53,29.95,29.88,9,1,11,0.11
2013-6-18,64,63,61,62,61,60,96,94,91,29.89,29.85,5,1,6,0.00
2013-6-19,67,60,56,53,51,49,78,72,61,30.17,30.10,5,0,8,0.00
2013-6-20,81,66,50,60,53,48,92,66,36,30.23,30.16,7,1,7,0.00
2013-6-21,83,72,58,64,59,53,89,66,43,30.24,30.12,9,1,10,0.00
2013-6-22,86,72,61,74,65,59,94,78,59,30.14,30.03,10,1,11,0.00
2013-6-23,89,78,65,73,68,63,96,73,46,30.10,30.00,12,1,16,0.00
2013-6-24,86,76,64,71,66,62,94,75,47,30.10,29.96,12,2,13,0.00
2013-6-25,86,74,67,75,69,65,96,84,65,30.00,29.82,8,2,10,0.38
2013-6-26,84,73,66,73,69,65,99,86,63,29.90,29.76,7,1,10,0.97
2013-6-27,81,72,67,71,68,66,99,90,65,29.77,29.61,6,1,9,0.37
2013-6-28,78,69,62,70,66,61,100,91,68,29.61,29.50,9,1,12,0.01
2013-6-29,80,67,59,69,64,58,99,89,55,29.68,29.52,14,1,19,0.62
2013-6-30,77,68,62,69,65,62,99,90,73,29.87,29.67,12,1,14,0.01
2013-7-1,76,68,65,69,65,62,98,92,77,29.96,29.83,9,1,11,0.26
2013-7-2,81,71,63,71,66,63,98,86,65,30.03,29.92,7,1,8,0.00
2013-7-3,83,73,66,73,69,65,99,87,67,30.12,30.02,11,2,13,0.00
2013-7-4,76,72,69,71,69,68,99,92,79,30.16,30.10,12,2,13,0.22
2013-7-5,79,71,68,72,69,67,99,93,77,30.14,30.07,10,1,12,0.40
2013-7-6,83,73,67,74,70,66,99,90,69,30.14,29.99,11,1,12,0.24
2013-7-7,78,71,66,71,67,62,98,89,71,30.08,29.98,12,1,14,0.00
2013-7-8,84,71,62,74,67,60,99,87,66,30.09,30.01,9,1,12,0.49
2013-7-9,88,74,69,78,72,68,100,93,70,30.05,29.91,12,2,15,0.79
2013-7-10,86,72,66,80,71,66,99,95,76,29.95,29.74,17,2,22,1.49
2013-7-11,76,69,62,66,61,55,99,79,53,30.01,29.89,10,2,13,0.01
2013-7-12,80,68,56,66,61,54,99,80,43,30.10,30.01,11,1,12,0.00
2013-7-13,81,69,62,68,64,60,94,86,64,30.19,30.09,5,0,6,0.00
2013-7-14,86,78,68,74,70,66,95,78,61,30.24,30.18,9,1,10,0.00
2013-7-15,90,80,70,76,72,68,98,78,55,30.30,30.21,6,1,9,0.00
2013-7-16,89,79,70,78,74,69,99,84,64,30.30,30.21,9,1,10,0.00
2013-7-17,92,81,72,78,74,72,99,81,55,30.27,30.13,9,1,9,0.00
2013-7-18,92,82,72,78,74,72,99,81,54,30.15,29.97,7,0,8,0.00
2013-7-19,90,80,73,77,74,71,97,83,59,29.99,29.81,14,2,19,0.00
2013-7-20,80,72,66,73,70,66,99,92,78,29.90,29.78,14,2,17,0.56
2013-7-21,83,75,68,73,69,65,100,82,61,29.95,29.89,7,1,10,0.00
2013-7-22,74,69,64,72,66,64,98,92,83,29.94,29.75,7,1,9,0.08
2013-7-23,84,72,62,75,68,62,100,88,65,29.79,29.64,14,1,14,0.03
2013-7-24,70,65,55,64,56,51,88,75,60,30.01,29.77,12,3,14,0.00
2013-7-25,76,63,51,58,53,49,96,71,43,30.09,30.01,7,1,8,0.00
2013-7-26,79,66,51,62,56,50,99,74,48,30.10,29.96,10,1,12,0.00
2013-7-27,69,65,62,66,62,59,97,91,83,29.97,29.80,13,1,13,0.18
2013-7-28,70,62,54,60,55,51,98,79,55,30.02,29.84,9,1,15,0.01
2013-7-29,69,62,52,60,56,51,99,81,57,30.19,30.01,8,1,8,0.00
2013-7-30,78,65,52,64,58,51,100,79,51,30.24,30.14,6,0,7,0.00
2013-7-31,75,66,61,68,63,59,96,89,69,30.15,29.92,11,1,11,0.07
2013-8-1,79,69,60,66,63,58,99,83,52,29.92,29.84,10,2,10,0.08
2013-8-2,73,65,55,65,60,54,98,86,63,30.00,29.89,12,1,14,0.17
2013-8-3,78,70,64,67,62,52,99,79,43,29.98,29.92,11,1,14,0.31
2013-8-4,71,66,58,61,57,55,98,74,59,30.12,30.05,12,2,13,0.03
2013-8-5,74,63,53,62,56,53,99,80,52,30.14,30.01,6,0,8,0.00
2013-8-6,79,68,59,63,60,57,94,77,52,30.01,29.93,10,1,11,0.00
2013-8-7,76,69,62,71,66,60,98,90,83,29.99,29.87,10,1,11,0.86
2013-8-8,81,74,70,76,72,68,99,93,79,29.94,29.88,9,1,13,0.08
2013-8-9,78,70,60,68,63,53,97,81,48,30.01,29.87,8,1,10,0.01
2013-8-10,80,69,59,68,61,57,95,79,60,30.11,30.01,7,1,8,0.01
2013-8-11,82,69,59,67,61,57,95,78,55,30.12,30.02,11,1,11,0.03
2013-8-12,81,70,60,70,65,59,99,83,63,30.06,29.83,9,1,12,0.00
2013-8-13,73,66,52,68,61,50,98,83,64,29.99,29.78,13,2,15,0.00
2013-8-14,68,57,49,56,52,48,99,83,52,30.17,29.99,10,1,11,0.00
2013-8-15,72,58,47,57,51,46,99,79,46,30.21,30.12,7,1,8,0.01
2013-8-16,75,64,54,60,55,50,97,75,42,30.19,30.13,8,1,9,0.00
2013-8-17,79,67,55,64,57,53,94,73,46,30.23,30.17,9,1,10,0.00
2013-8-18,75,65,56,67,60,54,97,86,71,30.20,30.11,8,1,10,0.00
2013-8-19,80,68,60,66,62,59,100,83,52,30.14,30.06,7,0,7,0.00
2013-8-20,84,70,57,68,61,57,99,78,46,30.18,30.08,5,0,7,0.00
2013-8-21,83,71,59,69,64,58,99,80,53,30.18,30.03,8,1,10,0.00
2013-8-22,83,72,64,74,69,63,99,88,68,30.07,29.96,9,1,10,0.05
2013-8-23,82,72,58,70,62,52,99,75,42,30.17,29.98,9,1,12,0.09
2013-8-24,82,68,55,60,54,46,95,65,29,30.30,30.16,7,1,9,0.00
2013-8-25,82,68,54,66,59,53,99,76,48,30.33,30.21,11,1,11,0.00
2013-8-26,85,73,61,70,65,58,91,77,54,30.23,30.00,9,1,11,0.00
2013-8-27,80,73,70,75,70,67,97,91,81,30.02,29.88,8,1,8,0.36
2013-8-28,80,75,69,74,72,68,98,91,79,29.94,29.80,12,1,12,0.01
2013-8-29,86,75,67,74,69,65,99,85,51,30.04,29.94,7,1,8,0.01
2013-8-30,87,74,62,73,68,62,100,84,58,29.99,29.80,8,1,9,0.00
2013-8-31,85,75,68,74,70,67,97,85,64,29.82,29.63,15,1,18,0.06
2013-9-1,82,74,69,73,70,68,99,87,69,29.80,29.72,11,1,12,0.00
2013-9-2,80,70,62,73,67,60,100,91,68,29.84,29.73,10,1,11,0.08
2013-9-3,65,60,53,60,57,52,99,91,80,30.05,29.84,8,0,9,0.00
2013-9-4,78,63,49,62,56,49,100,80,47,30.13,30.04,9,1,12,0.01
2013-9-5,72,64,52,62,55,45,98,76,41,30.23,30.06,11,1,12,0.00
2013-9-6,75,59,44,54,48,43,99,72,34,30.28,30.11,6,0,8,0.00
2013-9-7,81,65,48,67,58,47,97,78,52,30.12,29.92,9,1,10,0.00
2013-9-8,74,68,58,69,63,53,98,87,69,30.04,29.90,11,1,12,0.01
2013-9-9,81,67,52,74,63,50,95,87,74,30.06,29.96,7,1,9,0.02
2013-9-10,94,81,70,77,73,68,94,78,50,30.06,29.99,12,2,14,0.00
2013-9-11,92,79,71,76,72,70,97,81,53,30.08,29.94,8,1,11,0.00
2013-9-12,74,68,60,71,66,59,100,95,78,29.95,29.81,14,1,16,0.56
2013-9-13,61,56,50,59,53,46,99,90,69,30.08,29.85,15,2,19,0.37
2013-9-14,67,55,44,51,47,42,96,76,49,30.18,30.07,8,1,8,0.00
2013-9-15,65,56,44,56,50,43,99,83,61,30.18,30.06,9,1,10,0.02
2013-9-16,68,58,47,57,54,46,99,86,61,30.33,30.10,15,2,18,0.02
2013-9-17,70,55,41,53,48,41,99,79,46,30.40,30.24,9,1,10,0.01
2013-9-18,73,61,49,62,54,46,96,80,64,30.25,30.07,9,1,10,0.00
2013-9-19,75,66,60,68,64,59,98,92,78,30.11,29.99,11,2,11,0.00
2013-9-20,81,72,66,73,68,65,99,89,72,30.01,29.77,16,3,18,0.22
2013-9-21,69,64,53,67,61,53,100,93,65,29.81,29.64,9,1,12,1.47
2013-9-22,57,54,50,53,49,45,99,84,67,30.05,29.81,9,1,11,0.01
2013-9-23,59,53,43,49,47,42,96,82,62,30.17,30.05,5,0,6,0.00
2013-9-24,68,53,40,52,46,40,99,81,50,30.16,29.99,8,1,9,0.00
2013-9-25,73,59,45,56,51,44,100,79,48,30.01,29.90,9,1,10,0.01
2013-9-26,75,60,47,56,51,46,99,74,41,30.11,29.96,10,1,11,0.00
2013-9-27,73,60,48,56,52,47,98,77,48,30.21,30.10,11,1,14,0.00
2013-9-28,75,63,51,60,55,49,97,78,52,30.22,30.09,11,1,12,0.00
2013-9-29,73,62,54,62,58,52,97,85,64,30.10,29.98,11,2,12,0.01
2013-9-30,66,62,55,62,60,54,97,94,86,30.02,29.95,8,1,10,0.02
2013-10-1,78,65,55,66,60,54,100,85,57,30.08,29.98,9,1,11,0.01
2013-10-2,81,67,58,69,62,57,99,86,62,30.08,30.01,6,1,8,0.00
2013-10-3,79,67,62,72,65,61,99,94,72,30.06,29.97,11,1,11,0.51
2013-10-4,77,69,62,71,66,62,100,92,72,30.06,30.01,9,1,9,0.10
2013-10-5,72,68,63,71,67,63,100,97,89,30.05,29.93,9,1,11,0.16
2013-10-6,78,69,54,69,66,53,99,90,69,29.93,29.67,21,3,30,0.44
2013-10-7,59,52,46,54,48,44,99,86,62,30.15,29.72,11,2,11,0.67
2013-10-8,68,54,42,53,46,41,99,77,44,30.31,30.15,8,1,9,0.00
2013-10-9,69,56,44,49,46,43,95,72,42,30.32,30.22,9,1,9,0.00
2013-10-10,69,54,43,50,45,37,92,73,33,30.23,30.11,7,0,8,0.00
2013-10-11,75,59,45,56,50,43,98,74,39,30.14,30.05,7,0,7,0.00
2013-10-12,73,62,52,64,56,45,95,79,67,30.12,30.06,9,1,9,0.00
2013-10-13,66,62,57,63,58,52,96,89,77,30.29,30.12,8,1,10,0.01
2013-10-14,68,57,48,53,50,44,95,78,53,30.35,30.24,9,2,12,0.00
2013-10-15,63,52,43,61,50,42,99,93,86,30.25,29.95,6,0,6,0.01
2013-10-16,66,60,48,64,58,46,99,93,78,29.95,29.80,16,2,20,0.67
2013-10-17,57,48,40,50,46,39,100,93,70,29.93,29.79,9,1,10,0.16
2013-10-18,62,51,41,49,44,40,98,80,54,30.01,29.91,14,2,16,0.00
2013-10-19,49,44,39,46,42,38,98,93,83,29.95,29.77,11,1,11,0.24
2013-10-20,60,47,37,46,40,35,96,79,48,30.01,29.94,18,2,18,0.00
2013-10-21,64,52,43,49,43,38,97,72,45,30.01,29.84,18,4,27,0.07
2013-10-22,49,42,34,48,34,30,97,74,47,29.99,29.86,8,3,14,0.05
2013-10-23,44,38,35,41,35,32,97,88,67,29.97,29.80,13,2,15,0.09
2013-10-24,42,37,31,35,32,29,94,84,68,30.19,29.96,12,3,15,0.01
2013-10-25,47,38,30,37,32,29,97,81,52,30.38,30.19,10,2,12,0.01
2013-10-26,45,39,32,38,31,28,94,73,57,30.26,29.89,25,4,28,0.00
2013-10-27,52,40,31,38,34,30,97,80,51,30.12,30.02,10,1,11,0.01
2013-10-28,59,43,30,43,36,29,98,79,47,30.35,30.11,9,1,9,0.00
2013-10-29,56,44,33,42,38,32,99,80,51,30.42,30.27,7,0,9,0.01
2013-10-30,64,53,39,55,46,37,94,78,63,30.27,30.04,8,1,9,0.00
2013-10-31,65,60,57,59,58,55,98,93,78,30.05,29.31,26,6,26,0.49
2013-11-1,60,54,49,59,49,43,96,83,73,29.68,29.25,22,6,25,0.30
2013-11-2,48,45,41,44,43,40,97,94,86,30.04,29.69,15,3,15,0.18
2013-11-3,49,40,32,40,35,27,99,84,57,30.49,30.04,9,1,10,0.00
2013-11-4,45,37,29,31,28,25,85,69,49,30.53,30.42,11,2,14,0.00
2013-11-5,59,49,41,45,39,31,75,68,57,30.46,30.28,13,2,14,0.00
2013-11-6,65,55,45,57,46,36,97,75,59,30.29,29.91,22,4,25,0.28
2013-11-7,50,41,39,48,36,29,97,82,60,30.15,29.94,23,5,23,0.16
2013-11-8,42,35,29,34,30,26,95,81,58,30.33,30.12,17,3,17,0.02
2013-11-9,57,45,30,41,34,27,89,69,46,30.29,29.94,22,5,26,0.00
2013-11-10,50,42,31,41,34,28,89,74,60,30.31,29.97,20,6,22,0.00
2013-11-11,46,38,29,39,32,27,96,83,56,30.30,30.06,17,3,19,0.08
2013-11-12,33,29,27,30,25,21,96,86,73,30.55,30.23,15,3,16,0.15
2013-11-13,37,30,23,26,22,18,85,73,54,30.60,30.35,13,5,17,0.01
2013-11-14,50,37,26,27,23,21,82,59,35,30.35,30.15,18,5,21,0.00
2013-11-15,51,43,35,32,27,22,68,54,39,30.18,30.10,18,3,19,0.00
2013-11-16,58,49,40,52,44,32,90,83,69,30.20,29.94,16,3,17,0.00
2013-11-17,60,57,50,58,54,42,98,90,69,29.95,29.44,28,9,33,0.75
2013-11-18,50,42,35,42,36,28,87,76,66,30.13,29.60,26,10,29,0.00
2013-11-19,40,34,28,29,26,23,81,74,59,30.44,30.13,12,2,15,0.00
2013-11-20,46,36,28,26,22,18,85,60,36,30.47,30.33,13,3,18,0.00
2013-11-21,45,40,36,42,33,19,94,79,46,30.41,30.22,11,2,12,0.09
2013-11-22,49,44,34,49,42,30,99,95,85,30.34,30.14,17,2,20,0.14
2013-11-23,33,27,20,30,22,8,94,81,59,30.48,30.25,17,4,21,0.00
2013-11-24,22,19,16,17,12,7,87,73,59,30.62,30.47,18,4,20,0.00
2013-11-25,33,24,15,29,16,12,92,73,53,30.55,30.23,18,5,19,0.00
2013-11-26,33,30,29,31,29,28,97,94,90,30.24,29.88,10,2,11,0.00
2013-11-27,31,26,22,30,22,14,97,84,67,30.20,29.84,15,4,18,0.00
2013-11-28,27,22,14,22,17,10,89,82,73,30.48,30.20,13,2,15,0.00
2013-11-29,35,24,14,25,19,13,96,82,58,30.70,30.47,8,1,9,0.12
2013-11-30,37,30,24,29,24,20,85,79,68,30.65,30.22,12,2,13,0.02
2013-12-1,40,35,30,33,30,26,90,82,73,30.22,29.99,9,1,12,0.00
2013-12-2,39,35,32,35,32,30,97,90,82,29.99,29.89,5,0,6,0.00
2013-12-3,50,41,33,44,37,31,95,88,79,29.94,29.88,8,1,12,0.01
2013-12-4,57,50,43,51,46,40,91,85,79,29.97,29.78,10,2,14,0.00
2013-12-5,59,49,32,57,45,31,94,86,67,30.13,29.76,17,4,17,0.05
2013-12-6,32,29,25,31,27,24,96,93,85,30.38,30.08,9,2,10,0.01
2013-12-7,25,20,14,24,17,11,95,85,73,30.65,30.38,9,1,10,0.00
2013-12-8,28,22,13,27,18,11,96,84,65,30.65,30.07,13,3,16,0.00
2013-12-9,33,30,24,33,27,19,98,89,79,30.20,29.98,21,7,21,0.00
2013-12-10,26,22,19,19,14,10,83,73,53,30.32,30.07,23,7,23,0.00
2013-12-11,26,20,15,21,15,8,93,83,73,30.49,30.30,13,4,16,0.00
2013-12-12,18,13,2,8,4,-1,90,70,49,30.53,30.31,17,5,17,0.00
2013-12-13,30,24,17,20,14,6,78,68,59,30.33,30.25,12,3,12,0.00
2013-12-14,34,30,25,34,28,20,99,95,76,30.28,29.70,11,3,13,0.00
2013-12-15,32,22,15,32,19,11,99,90,80,30.11,29.71,22,9,22,0.00
2013-12-16,23,17,10,21,12,7,94,81,67,30.25,30.06,11,3,13,0.00
2013-12-17,27,24,20,27,22,19,97,92,82,30.11,29.98,14,4,14,0.00
2013-12-18,29,25,21,23,20,16,90,83,71,30.22,30.07,13,5,15,0.00
2013-12-19,44,36,28,36,28,19,81,72,65,30.11,29.99,15,3,15,0.35
2013-12-20,54,46,40,53,42,33,99,87,68,30.00,29.83,14,4,18,0.20
2013-12-21,62,49,40,61,49,39,100,99,94,29.84,29.45,21,4,21,1.10
2013-12-22,65,52,40,62,48,39,100,88,68,29.99,29.41,34,8,37,0.61
2013-12-23,40,32,26,39,28,20,97,84,73,30.34,29.98,16,6,18,0.01
2013-12-24,26,17,12,22,13,8,93,83,78,30.60,30.31,14,5,19,0.00
2013-12-25,28,20,11,23,15,8,91,80,61,30.57,30.22,14,4,15,0.00
2013-12-26,31,28,23,27,23,18,92,80,66,30.37,30.15,21,6,23,0.00
2013-12-27,41,35,26,32,28,21,83,76,68,30.39,30.24,15,4,15,0.00
2013-12-28,51,41,35,37,32,30,82,72,53,30.24,30.02,16,4,19,0.00
2013-12-29,40,38,29,39,34,27,96,83,60,30.02,29.73,17,3,18,0.12
2013-12-30,28,22,19,27,18,13,95,84,71,30.27,29.95,11,2,13,0.00
2013-12-31,23,19,15,20,15,11,93,85,75,30.38,30.11,19,6,21,0.00
2014-1-1,25,21,18,22,19,16,93,90,86,30.39,30.15,7,1,8,0.00
2014-1-2,21,18,12,19,16,10,93,92,89,30.15,29.86,21,5,24,0.00